GW5294 Weather Reports


time (UTC)temp
C
wind
direction
speed
KPH
gust
KPH
rain 1hr
cm
rain 24hr
cm
rain mn
cm
humidity
%
barometer
mb
20260510093355 18 81 0.0 0.0 0.00 0.00 0.00 99 1012.4
20260510092852 18 80 0.0 0.0 0.00 0.00 0.00 99 1012.3
20260510092348 18 79 0.0 0.0 0.00 0.00 0.00 99 1012.4
20260510091844 18 80 0.0 0.0 0.00 0.00 0.00 99 1012.5
20260510091341 18 82 0.0 0.0 0.00 0.00 0.00 99 1012.3
20260510090838 18 69 0.0 0.0 0.00 0.00 0.00 99 1012.4
20260510090334 19 69 0.0 0.0 0.00 0.00 0.00 99 1012.5
20260510085830 19 69 0.0 0.0 0.00 0.00 0.00 99 1012.4
20260510085329 19 65 0.0 0.0 0.00 0.00 0.00 99 1012.3
20260510084826 19 58 0.0 0.0 0.00 0.00 0.00 99 1012.3
20260510084318 19 45 0.0 0.0 0.00 0.00 0.00 99 1012.3
20260510083814 19 79 0.0 0.0 0.00 0.00 0.00 99 1012.2
20260510083311 19 79 0.0 0.0 0.00 0.00 0.00 99 1012.3
20260510082806 19 96 0.0 0.0 0.00 0.00 0.00 99 1012.4
20260510082306 19 84 0.0 0.0 0.00 0.00 0.00 99 1012.5
20260510081802 19 81 0.0 0.0 0.00 0.00 0.00 99 1012.4
20260510081258 19 14 0.0 0.0 0.00 0.00 0.00 99 1012.3
20260510080754 19 31 0.0 0.0 0.00 0.00 0.00 99 1012.1
20260510080249 19 85 0.0 0.0 0.00 0.00 0.00 99 1012.0
20260510075746 19 85 0.0 0.0 0.00 0.00 0.00 99 1012.1
20260510075244 19 77 0.0 0.0 0.00 0.00 0.00 99 1012.3
20260510074741 19 68 0.0 0.0 0.00 0.00 0.00 99 1012.3
20260510074237 19 81 0.0 0.0 0.00 0.00 0.00 99 1012.4
20260510073733 19 81 0.0 0.0 0.00 0.00 0.00 99 1012.4
20260510073230 19 54 0.0 0.0 0.00 0.00 0.00 99 1012.3
20260510072725 19 57 0.0 0.0 0.00 0.00 0.00 99 1012.3
20260510072222 19 40 0.0 0.0 0.00 0.00 0.00 99 1012.1
20260510071719 19 89 0.0 0.0 0.00 0.00 0.00 99 1012.2
20260510071215 19 82 0.0 0.0 0.00 0.00 0.00 99 1012.1
20260510070714 19 69 0.0 0.0 0.00 0.00 0.00 99 1012.1
20260510070211 19 56 0.0 0.0 0.00 0.00 0.00 99 1012.2
20260510065705 19 72 0.0 0.0 0.00 0.00 0.00 99 1011.9
20260510065202 19 359 0.0 1.6 0.00 0.00 0.00 99 1012.2
20260510064658 19 80 0.0 0.0 0.00 0.00 0.00 99 1012.1
20260510064156 19 119 0.0 0.0 0.00 0.00 0.00 99 1012.2
20260510063653 19 82 0.0 1.6 0.00 0.00 0.00 99 1012.3
20260510063149 19 88 0.0 0.0 0.00 0.00 0.00 99 1012.3
20260510062646 19 69 0.0 0.0 0.00 0.00 0.00 99 1012.0
20260510062142 19 89 0.0 1.6 0.00 0.00 0.00 99 1012.2
20260510061637 19 98 0.0 0.0 0.00 0.00 0.00 99 1011.9
20260510061135 20 95 0.0 0.0 0.00 0.00 0.00 99 1012.1
20260510060631 20 93 1.6 3.2 0.00 0.00 0.00 99 1012.2
20260510060127 20 84 0.0 1.6 0.00 0.00 0.00 99 1012.2
20260510055625 19 103 0.0 0.0 0.00 0.00 0.00 99 1012.3
20260510055123 19 89 0.0 1.6 0.00 0.00 0.00 99 1012.3
20260510054617 19 88 0.0 0.0 0.00 0.00 0.00 99 1012.2
20260510054113 19 84 0.0 0.0 0.00 0.00 0.00 99 1012.3
20260510053613 19 13 1.6 1.6 0.00 0.00 0.00 99 1012.5
20260510053110 19 54 0.0 0.0 0.00 0.00 0.00 99 1012.3
20260510052605 19 79 0.0 0.0 0.00 0.00 0.00 99 1012.0
20260510052102 20 93 0.0 0.0 0.00 0.00 0.00 99 1012.2
20260510051557 20 39 0.0 0.0 0.00 0.00 0.00 99 1012.3
20260510051055 20 52 0.0 0.0 0.00 0.00 0.00 99 1012.2
20260510050552 20 26 3.2 3.2 0.00 0.00 0.00 99 1012.4
20260510050049 20 24 0.0 1.6 0.00 0.00 0.00 99 1012.6
20260510045546 20 66 0.0 0.0 0.00 4.70 4.70 99 1012.6
20260510045042 20 21 0.0 0.0 0.00 4.70 4.70 99 1012.7
20260510044538 20 14 0.0 1.6 0.00 4.70 4.70 99 1012.8
20260510044036 20 63 0.0 0.0 0.00 4.70 4.70 99 1012.6
20260510043532 20 42 0.0 1.6 0.00 4.70 4.70 99 1012.6
20260510043027 20 41 3.2 4.8 0.00 4.70 4.70 99 1012.5
20260510042522 20 23 1.6 3.2 0.00 4.70 4.70 99 1012.6
20260510042021 20 34 3.2 3.2 0.00 4.70 4.70 99 1012.7
20260510041519 19 81 0.0 0.0 0.00 4.70 4.70 99 1012.1
20260510041016 19 83 0.0 0.0 0.00 4.70 4.70 99 1012.3
20260510040513 19 29 0.0 0.0 0.00 4.70 4.70 99 1011.9
20260510040008 19 47 0.0 0.0 0.00 4.70 4.70 99 1011.8
20260510035506 19 54 0.0 0.0 0.00 4.70 4.70 99 1011.8
20260510035004 19 88 0.0 0.0 0.00 4.70 4.70 99 1011.8
20260510034505 19 90 0.0 0.0 0.00 4.70 4.70 99 1011.8
20260510034000 19 85 0.0 0.0 0.00 4.70 4.70 99 1011.6
20260510033456 19 127 1.6 3.2 0.00 4.70 4.70 99 1011.7
20260510032954 19 154 1.6 1.6 0.00 4.70 4.70 99 1011.6
20260510032451 19 88 0.0 0.0 0.00 4.70 4.70 99 1011.7
20260510031950 19 82 0.0 0.0 0.00 4.70 4.70 99 1011.7
20260510031446 19 95 0.0 0.0 0.00 4.70 4.70 99 1011.7
20260510030942 19 129 0.0 0.0 0.00 4.70 4.70 99 1011.9
20260510030437 19 155 3.2 3.2 0.00 4.70 4.70 99 1011.6
20260510025936 19 152 3.2 3.2 0.00 4.70 4.70 99 1011.6
20260510025432 19 133 1.6 1.6 0.00 4.70 4.70 99 1011.6
20260510024930 19 125 1.6 3.2 0.13 4.70 4.70 99 1011.9
20260510024426 19 95 1.6 3.2 0.30 4.70 4.70 99 1011.9
20260510023922 19 144 0.0 0.0 0.18 4.67 4.67 99 1012.5
20260510023419 19 87 0.0 0.0 0.18 4.67 4.67 99 1012.4
20260510022916 19 30 1.6 3.2 0.00 4.65 4.65 99 1012.7
20260510022415 19 17 0.0 0.0 0.00 4.65 4.65 99 1012.7
20260510021914 19 225 3.2 3.2 0.00 4.65 4.65 99 1012.2
20260510021412 19 113 6.4 9.7 0.00 4.65 4.65 99 1012.0
20260510020909 19 210 8.0 9.7 0.00 4.65 4.65 99 1012.0
20260510020404 19 163 6.4 6.4 0.00 4.65 4.65 99 1011.5
20260510015859 18 86 3.2 4.8 0.00 4.65 4.65 99 1011.5
20260510015355 18 104 0.0 0.0 0.00 4.65 4.65 99 1011.7
20260510014851 18 201 3.2 3.2 0.00 4.65 4.65 99 1011.7
20260510014349 18 91 1.6 3.2 0.00 4.65 4.65 99 1011.9
20260510013844 18 122 3.2 4.8 0.00 4.65 4.65 99 1012.1
20260510013340 18 122 3.2 3.2 0.00 4.65 4.65 99 1012.4
20260510012835 18 152 3.2 4.8 0.00 4.65 4.65 99 1012.2
20260510012335 18 151 6.4 6.4 0.00 4.65 4.65 99 1012.1
20260510011830 18 117 0.0 0.0 0.00 4.65 4.65 99 1012.1
20260510011326 18 109 0.0 0.0 0.00 4.65 4.65 99 1012.4
20260510010822 19 78 0.0 0.0 0.00 4.65 4.65 99 1012.7
20260510010320 19 31 0.0 0.0 0.00 4.65 4.65 99 1012.4
20260510005816 19 60 0.0 1.6 0.00 4.65 4.65 99 1012.7
20260510005313 18 66 0.0 0.0 0.00 4.65 4.65 99 1012.6
20260510004811 19 19 0.0 0.0 0.00 4.65 4.65 99 1012.5
20260510004308 19 71 0.0 0.0 0.00 4.65 4.65 99 1012.4
20260510003805 19 61 0.0 0.0 0.00 4.65 4.65 99 1012.1
20260510003302 19 62 0.0 0.0 0.00 4.65 4.65 99 1012.0
20260510002801 19 56 0.0 0.0 0.00 4.65 4.65 99 1012.1
20260510002258 18 17 0.0 0.0 0.00 4.65 4.65 99 1012.1
20260510001755 19 108 0.0 0.0 0.00 4.65 4.65 99 1011.9
20260510001253 19 74 0.0 0.0 0.00 4.65 4.65 99 1011.7
20260510000748 19 97 0.0 0.0 0.00 4.65 4.65 99 1011.7
20260510000248 19 54 0.0 0.0 0.00 4.65 4.65 99 1011.5
20260509235743 19 103 1.6 1.6 0.00 4.65 4.65 99 1011.1
20260509235240 18 54 0.0 0.0 0.00 4.65 4.65 99 1010.8
20260509234735 18 126 0.0 0.0 0.00 4.65 4.65 99 1010.8
20260509234232 18 146 1.6 3.2 0.00 4.65 4.65 99 1010.5
20260509233731 18 174 3.2 4.8 0.00 4.65 4.65 99 1010.5
20260509233228 18 92 3.2 3.2 0.00 4.65 4.65 99 1010.6
20260509232724 18 154 4.8 6.4 0.00 4.65 4.65 99 1010.1
20260509232221 18 142 4.8 9.7 0.00 4.65 4.65 99 1010.0
20260509231717 18 49 3.2 3.2 0.00 4.65 4.65 99 1010.0
20260509231215 18 115 3.2 4.8 0.13 4.65 4.65 99 1010.2
20260509230712 18 30 0.0 1.6 0.30 4.65 4.65 99 1010.2
20260509230209 18 115 3.2 4.8 0.36 4.62 4.62 99 1010.2
20260509225704 18 102 0.0 1.6 0.30 4.60 4.60 99 1010.4
20260509225200 18 128 9.7 12.9 0.13 4.57 4.57 99 1010.7
20260509224656 18 172 11.3 12.9 0.18 4.55 4.55 99 1011.2
20260509224153 18 128 3.2 6.4 0.48 4.55 4.55 99 1011.1
20260509223650 18 165 4.8 4.8 0.43 4.52 4.52 99 1011.1
20260509223147 18 132 4.8 4.8 0.43 4.47 4.47 99 1011.0
20260509222644 18 123 4.8 6.4 0.48 4.45 4.45 99 1011.1
20260509222139 18 100 0.0 0.0 0.48 4.39 4.39 99 1011.3
20260509221636 18 90 0.0 0.0 0.43 4.37 4.37 99 1011.2
20260509221132 18 75 0.0 1.6 0.30 4.32 4.32 99 1011.3
20260509220628 18 136 3.2 3.2 0.36 4.29 4.29 99 1011.6
20260509220124 18 164 0.0 0.0 0.30 4.27 4.27 99 1011.6
20260509215620 18 259 0.0 0.0 0.43 4.24 4.24 99 1011.6
20260509215117 18 148 0.0 0.0 0.48 4.22 4.22 99 1011.4
20260509214614 18 63 0.0 0.0 0.48 4.17 4.17 99 1011.1
20260509214111 18 63 0.0 0.0 0.71 4.14 4.14 99 1010.9
20260509213607 18 70 0.0 0.0 0.89 4.09 4.09 99 1010.8
20260509213104 18 75 0.0 0.0 0.79 4.01 4.01 99 1010.7
20260509212601 18 121 1.6 1.6 0.61 3.94 3.94 99 1011.0
20260509212058 18 139 3.2 3.2 0.48 3.89 3.89 99 1010.8
20260509211553 18 156 4.8 4.8 0.43 3.86 3.86 99 1011.1
20260509211050 18 158 6.4 6.4 0.48 3.84 3.84 99 1011.1
20260509210547 18 159 3.2 3.2 0.48 3.78 3.78 99 1011.2
20260509210043 18 136 6.4 9.7 0.48 3.73 3.73 99 1011.6
20260509205537 18 161 8.0 9.7 0.61 3.71 3.71 99 1011.8
20260509205033 18 171 1.6 3.2 0.79 3.66 3.66 99 1011.8
20260509204530 18 100 0.0 1.6 0.79 3.61 3.61 99 1011.5
20260509204026 18 112 3.2 4.8 0.43 3.53 3.53 99 1011.9
20260509203522 18 137 0.0 0.0 0.30 3.48 3.48 99 1011.9
20260509203021 19 121 0.0 0.0 0.18 3.45 3.45 99 1011.9
20260509202520 19 122 0.0 0.0 0.00 3.43 3.43 99 1011.8
20260509202017 18 99 0.0 0.0 0.13 3.43 3.43 99 1011.8
20260509201511 19 132 3.2 4.8 0.13 3.43 3.43 99 1011.7
20260509201010 19 115 4.8 4.8 0.00 3.40 3.40 99 1011.4
20260509200509 19 73 0.0 0.0 0.18 3.40 3.40 99 1011.2
20260509200006 19 126 0.0 0.0 0.30 3.40 3.40 99 1010.8
20260509195502 19 82 1.6 1.6 0.48 3.38 3.38 99 1010.8
20260509195001 19 66 0.0 1.6 0.79 3.35 3.35 99 1011.1
20260509194457 19 90 1.6 4.8 0.71 3.30 3.30 99 1011.2
20260509193955 18 83 0.0 1.6 0.61 3.23 3.23 99 1011.5
20260509193454 19 143 8.0 9.7 0.61 3.17 3.17 99 1011.8
20260509192950 19 71 0.0 0.0 0.48 3.12 3.12 99 1011.7
20260509192448 19 131 3.2 6.4 0.48 3.07 3.07 99 1011.9
20260509191942 19 127 1.6 3.2 0.30 3.05 3.05 99 1011.9
20260509191438 19 115 6.4 6.4 0.79 3.02 3.02 99 1012.3
20260509190934 19 221 4.8 6.4 1.37 3.00 3.00 99 1012.2
20260509190431 19 147 12.9 16.1 0.89 2.90 2.90 99 1011.4
20260509185929 19 150 6.4 6.4 0.48 2.77 2.77 99 1012.7
20260509185426 19 309 0.0 1.6 0.48 2.74 2.74 99 1012.5
20260509184923 19 144 14.5 17.7 0.30 2.69 2.69 99 1012.2
20260509184420 19 158 4.8 6.4 0.30 2.67 2.67 99 1012.3
20260509183917 19 94 3.2 6.4 0.13 2.64 2.64 99 1012.1
20260509183411 19 97 4.8 6.4 0.00 2.62 2.62 99 1012.1
20260509182908 19 117 3.2 4.8 0.18 2.62 2.62 99 1011.9
20260509182404 19 140 0.0 1.6 0.18 2.62 2.62 99 1012.0
20260509181902 19 110 3.2 4.8 0.00 2.59 2.59 99 1012.3
20260509181359 19 153 6.4 6.4 0.00 2.59 2.59 99 1012.5
20260509180857 19 165 4.8 4.8 0.00 2.59 2.59 99 1012.3
20260509180352 19 100 0.0 0.0 0.00 2.59 2.59 99 1011.9
20260509175849 19 75 0.0 1.6 0.00 2.59 2.59 99 1011.7
20260509175345 19 38 0.0 1.6 0.00 2.59 2.59 99 1011.7
20260509174841 19 117 1.6 1.6 0.00 2.59 2.59 99 1011.7
20260509174338 19 125 0.0 1.6 0.00 2.59 2.59 99 1011.5
20260509173833 19 122 0.0 1.6 0.13 2.59 2.59 99 1011.5
20260509173329 19 70 3.2 4.8 0.13 2.59 2.59 99 1011.6
20260509172825 19 85 0.0 0.0 0.00 2.57 2.57 99 1011.7
20260509172322 19 80 1.6 4.8 0.00 2.57 2.57 99 1011.8
20260509171818 19 115 6.4 9.7 0.00 2.57 2.57 99 1012.0
20260509171313 19 112 1.6 1.6 0.00 2.57 2.57 99 1011.8
20260509170810 19 79 3.2 4.8 0.00 2.57 2.57 99 1012.0
20260509170306 19 96 0.0 0.0 0.00 2.57 2.57 99 1011.9
20260509165806 19 77 0.0 0.0 0.00 2.57 2.57 99 1011.9
20260509165301 19 62 0.0 1.6 0.00 2.57 2.57 99 1011.9
20260509164757 19 80 0.0 0.0 0.00 2.57 2.57 99 1011.9
20260509164253 19 66 0.0 1.6 0.00 2.57 2.57 99 1011.8
20260509163750 18 92 0.0 0.0 0.00 2.57 2.57 99 1012.1
20260509163246 18 231 8.0 11.3 0.18 2.57 2.57 99 1012.6
20260509162745 18 164 6.4 6.4 0.18 2.57 2.57 99 1012.5
20260509162239 18 144 6.4 6.4 0.18 2.57 2.57 99 1012.4
20260509161735 18 158 3.2 4.8 0.00 2.54 2.54 99 1012.1
20260509161231 18 129 4.8 6.4 0.00 2.54 2.54 99 1012.3
20260509160727 18 124 3.2 4.8 0.00 2.54 2.54 99 1011.9
20260509160224 18 127 3.2 3.2 0.13 2.54 2.54 99 1012.1
20260509155718 18 86 1.6 3.2 0.13 2.54 2.54 99 1011.8
20260509155215 18 72 0.0 1.6 0.00 2.51 2.51 99 1012.1
20260509154711 18 169 4.8 6.4 0.00 2.51 2.51 99 1012.4
20260509154209 18 121 3.2 4.8 0.18 2.51 2.51 99 1012.7
20260509153706 18 121 6.4 6.4 0.48 2.51 2.51 99 1012.5
20260509153202 18 162 3.2 4.8 0.61 2.51 2.51 99 1012.3
20260509152658 18 76 0.0 1.6 0.13 2.44 2.44 99 1012.4
20260509152155 18 114 0.0 1.6 0.00 2.41 2.41 99 1012.3
20260509151651 18 125 0.0 1.6 0.00 2.41 2.41 99 1012.1
20260509151149 18 77 1.6 3.2 0.00 2.41 2.41 99 1012.1
20260509150647 18 72 0.0 1.6 0.00 2.41 2.41 99 1011.9
20260509150145 18 93 0.0 0.0 0.00 2.41 2.41 99 1011.8
20260509145641 18 145 1.6 1.6 0.00 2.41 2.41 99 1012.1
20260509145136 18 123 6.4 6.4 0.00 2.41 2.41 99 1012.1
20260509144633 18 204 6.4 9.7 0.00 2.41 2.41 99 1011.8
20260509144130 18 110 6.4 6.4 0.00 2.41 2.41 99 1011.7
20260509143627 18 73 1.6 1.6 0.18 2.41 2.41 99 1011.4
20260509143125 18 95 0.0 0.0 0.36 2.41 2.41 99 1011.4
20260509142620 18 126 0.0 0.0 0.18 2.39 2.39 99 1011.6
20260509142116 18 119 1.6 3.2 0.13 2.36 2.36 99 1011.6
20260509141612 18 128 4.8 6.4 0.13 2.36 2.36 99 1011.6
20260509141109 18 88 0.0 0.0 0.30 2.34 2.34 99 1011.5
20260509140606 18 87 6.4 9.7 0.61 2.34 2.34 99 1012.0
20260509140104 18 142 8.0 11.3 0.61 2.29 2.29 99 1012.0
20260509135601 18 129 1.6 1.6 0.48 2.24 2.24 99 1011.5
20260509135059 18 89 0.0 0.0 0.79 2.18 2.18 99 1011.4
20260509134555 18 83 1.6 1.6 0.79 2.16 2.16 99 1011.5
20260509134053 18 122 1.6 3.2 0.61 2.06 2.06 99 1012.0
20260509133549 18 89 0.0 0.0 1.02 2.03 2.03 99 1012.1
20260509133047 18 79 0.0 0.0 0.61 1.96 1.96 99 1011.9
20260509132545 18 117 0.0 0.0 0.00 1.85 1.85 99 1012.3
20260509132043 18 74 0.0 0.0 0.61 1.85 1.85 99 1011.9
20260509131539 18 354 0.0 0.0 0.97 1.85 1.85 99 1012.2
20260509131036 18 118 0.0 0.0 0.48 1.75 1.75 99 1011.9
20260509130531 18 73 0.0 0.0 0.30 1.70 1.70 99 1011.5
20260509130029 18 109 0.0 0.0 0.48 1.68 1.68 99 1011.6
20260509125525 18 97 1.6 1.6 1.07 1.68 1.68 99 1011.5
20260509125022 18 83 0.0 0.0 0.79 1.63 1.63 99 1011.8
20260509124518 18 81 0.0 1.6 0.00 1.50 1.50 99 1011.7
20260509124016 18 39 0.0 0.0 0.48 1.50 1.50 99 1011.8
20260509123514 18 41 0.0 0.0 1.98 1.50 1.50 99 1012.0
20260509123009 18 48 0.0 1.6 2.11 1.42 1.42 99 1012.3
20260509122506 18 78 0.0 1.6 1.07 1.17 1.17 99 1012.0
20260509122003 18 46 1.6 4.8 1.07 1.07 1.07 99 1011.9
20260509121500 18 91 3.2 4.8 2.16 0.97 0.97 99 1011.7
20260509120958 18 55 3.2 4.8 2.69 0.94 0.94 99 1012.4
20260509120455 18 348 1.6 3.2 1.55 0.64 0.64 99 1011.8
20260509115953 18 152 6.4 11.3 0.97 0.48 0.48 99 1012.4
20260509115450 19 14 4.8 4.8 0.30 0.38 0.38 98 1011.7
20260509114948 20 57 4.8 9.7 0.00 0.33 0.33 99 1011.4
20260509114446 21 4 3.2 4.8 0.00 0.33 0.33 99 1011.3
20260509113945 21 75 0.0 0.0 0.00 0.33 0.33 99 1010.3
20260509113442 21 41 0.0 0.0 0.00 0.33 0.33 99 1010.2
20260509112939 21 285 0.0 0.0 0.00 0.33 0.33 99 1009.9
20260509112436 21 264 0.0 0.0 0.00 0.33 0.33 99 1009.8
20260509111932 21 223 0.0 0.0 0.00 0.33 0.33 99 1009.7
20260509111430 21 194 1.6 3.2 0.00 0.33 0.33 99 1009.4
20260509110927 21 213 3.2 3.2 0.00 0.33 0.33 99 1009.3
20260509110423 21 122 4.8 4.8 0.00 0.33 0.33 99 1009.1
20260509105921 21 148 6.4 6.4 0.00 0.33 0.33 99 1008.8
20260509105420 21 124 4.8 6.4 0.00 0.33 0.33 99 1008.9
20260509104916 21 134 6.4 6.4 0.00 0.33 0.33 99 1008.8
20260509104413 21 108 3.2 4.8 0.00 0.33 0.33 99 1008.8
20260509103911 21 110 4.8 4.8 0.00 0.33 0.33 99 1008.9
20260509103408 21 137 4.8 6.4 0.00 0.33 0.33 99 1009.0
20260509102906 21 66 4.8 6.4 0.00 0.33 0.33 99 1009.0
20260509102403 21 159 6.4 6.4 0.00 0.33 0.33 99 1009.2
20260509101859 20 153 3.2 4.8 0.00 0.33 0.33 99 1009.2
20260509101355 20 108 3.2 3.2 0.00 0.33 0.33 99 1009.4
20260509100853 20 98 4.8 6.4 0.00 0.33 0.33 99 1009.1
20260509100350 20 145 3.2 3.2 0.00 0.33 0.33 99 1008.8
20260509095847 20 142 3.2 4.8 0.00 0.33 0.33 99 1008.9
20260509095344 20 138 3.2 3.2 0.00 0.33 0.33 99 1008.7
20260509094841 20 172 4.8 4.8 0.00 0.33 0.33 99 1008.6
20260509094338 20 125 3.2 3.2 0.00 0.33 0.33 99 1008.5